Theta_e
348 348 353 354 354 354 354 355 356 356 357 360 360 359 359 359 360 361 362 364 365 365 365 364 364 364 364 363 361 360 359 357 357 355 353 352 349 349 352 352 351 348 345 347 351 352 353 352 351 351 354 358 359 358 359 360 360 359 358 359 359 358 357
349 346 349 354 353 353 355 357 359 358 359 360 360 359 359 360 361 362 363 364 365 366 366 365 365 365 364 364 362 361 361 359 358 357 354 354 352 350 351 351 351 351 347 343 347 351 353 354 353 352 353 356 358 358 358 360 360 359 357 358 360 360 360
349 346 348 351 353 354 353 355 358 360 361 361 360 360 360 361 362 362 362 364 366 366 366 366 366 365 365 364 363 363 362 361 360 359 357 355 355 352 350 351 352 351 350 347 344 348 352 354 356 356 354 354 355 357 358 358 360 360 358 357 359 359 360
348 348 349 351 352 353 353 355 357 361 362 361 362 361 361 361 362 362 364 364 366 366 367 367 366 365 365 364 363 363 363 362 361 361 358 354 354 353 351 352 353 351 351 350 347 345 349 352 356 357 356 355 355 355 357 357 357 358 359 359 358 358 359
347 348 349 350 352 354 355 354 357 362 362 361 363 362 362 362 362 363 364 364 366 366 367 367 366 365 364 364 363 363 362 362 361 361 359 355 354 354 352 351 352 352 350 351 350 348 348 351 354 357 359 358 356 355 355 357 356 357 359 359 359 358 356
343 347 350 350 350 353 353 352 354 358 361 361 362 362 362 362 361 362 364 364 365 366 367 366 365 365 365 363 362 362 361 361 362 361 360 357 354 354 354 352 353 353 351 350 352 351 350 351 353 356 359 359 356 354 354 357 357 356 358 359 359 357 355
341 344 348 350 351 351 350 351 353 356 359 361 360 362 362 361 362 361 362 363 364 365 366 366 364 364 364 363 361 361 361 361 362 362 361 358 355 355 357 356 354 355 353 351 352 352 353 354 354 355 357 357 355 352 352 354 356 356 357 359 360 359 357
340 342 344 349 349 348 346 350 354 356 357 358 359 361 362 361 362 362 362 363 364 364 365 364 363 362 363 363 361 362 362 361 363 363 362 360 358 357 357 358 357 356 354 353 352 352 354 356 357 355 356 357 356 354 353 354 356 356 355 357 360 360 359
339 342 342 345 346 345 346 349 353 356 357 357 359 361 362 361 362 362 361 361 362 363 363 362 362 362 363 364 362 363 362 362 363 364 363 360 359 358 357 357 358 357 356 354 353 353 355 356 358 358 357 357 356 357 356 355 357 358 356 357 358 360 358
339 343 344 345 345 346 344 345 352 357 358 358 359 362 363 362 361 360 361 361 361 361 361 361 359 360 363 363 362 363 363 363 364 363 361 360 359 358 356 356 358 357 357 355 353 354 356 357 359 359 359 358 357 359 359 358 359 360 358 357 358 359 360
339 344 347 347 348 349 348 348 355 360 358 357 360 362 362 362 362 361 360 360 361 360 359 359 358 358 362 362 362 363 363 363 363 362 362 360 359 358 356 356 357 357 358 357 355 353 355 358 359 360 361 361 358 359 361 361 361 361 359 357 357 358 360
339 344 350 351 348 348 353 355 357 360 360 360 360 362 361 362 362 362 361 360 361 359 358 358 357 358 361 363 362 362 362 362 361 361 361 360 357 357 357 356 355 357 359 359 356 354 354 358 360 359 361 362 360 360 361 362 362 362 360 356 356 358 358
340 343 348 350 348 349 357 361 360 361 364 363 361 360 361 362 362 360 361 361 360 359 358 358 357 357 360 362 361 360 361 362 360 361 360 361 358 356 356 356 353 353 357 358 357 355 353 355 360 360 360 363 362 361 361 362 362 363 362 359 354 356 358
339 342 346 351 353 355 358 362 363 364 364 362 360 359 360 361 361 361 361 361 361 359 359 358 357 357 360 362 362 360 361 361 361 359 359 359 358 356 356 355 353 351 354 356 357 356 354 354 358 359 360 362 363 362 362 363 362 362 364 361 356 355 356
336 336 341 346 352 355 356 359 364 364 362 362 360 360 360 361 361 361 360 361 361 360 359 359 358 357 359 361 362 362 362 361 360 359 360 360 358 357 356 355 354 353 352 355 357 356 354 352 354 358 360 360 363 363 362 363 363 363 364 363 360 355 353
336 335 336 338 346 352 355 358 362 364 366 365 362 360 359 360 360 361 361 362 362 360 359 359 358 359 360 362 362 363 362 362 361 360 360 360 361 359 357 356 355 355 354 355 357 356 356 354 352 355 359 360 362 363 362 362 363 363 362 362 361 359 354
340 341 342 342 343 347 350 353 357 364 367 366 363 360 360 359 360 360 360 361 361 360 360 360 360 360 360 362 363 364 364 363 362 362 361 361 362 361 360 358 357 355 355 355 358 357 358 355 353 353 355 358 361 363 362 361 361 362 362 359 359 359 358
344 343 343 345 347 349 350 351 352 359 364 364 363 361 359 359 359 359 359 360 361 361 360 359 361 362 361 364 364 365 366 364 364 364 362 362 363 363 362 360 358 357 357 356 358 360 360 359 357 355 353 355 359 361 362 361 360 360 361 359 355 355 358
344 343 343 346 348 350 352 352 351 354 358 363 363 360 359 359 358 359 359 359 360 360 360 360 361 363 363 363 365 366 367 366 365 365 365 364 366 367 365 363 360 359 360 359 360 363 363 361 359 358 357 355 356 359 360 360 361 359 359 359 355 352 353
344 344 346 347 346 349 354 358 359 359 359 360 360 360 360 357 357 359 358 358 359 359 359 360 360 362 363 364 365 367 368 367 367 367 367 368 368 368 368 365 363 362 361 361 363 364 365 364 361 361 361 360 358 359 360 360 360 360 359 358 357 353 350
346 349 350 350 349 353 357 362 363 364 363 360 356 357 359 357 357 359 358 357 359 359 360 360 360 363 363 364 366 368 368 369 368 368 369 369 369 370 368 367 366 364 362 363 364 365 366 365 364 363 364 362 361 360 361 360 359 360 361 359 358 356 353
347 348 349 351 353 356 360 360 361 363 364 362 358 354 356 357 357 357 358 358 359 359 359 360 361 363 363 364 366 369 369 369 369 370 371 371 370 370 370 368 367 366 365 363 363 365 367 366 365 365 365 365 363 361 361 361 359 360 361 360 359 358 356
342 344 347 350 352 355 359 360 361 362 363 363 362 355 353 355 356 356 358 357 358 359 359 359 361 362 364 365 366 368 369 370 370 371 371 371 371 371 370 369 369 368 366 365 364 365 366 367 366 365 365 366 365 364 362 361 360 360 361 360 361 359 358
338 342 346 350 353 356 358 359 360 361 362 360 359 356 353 355 355 355 358 357 357 358 359 359 361 362 365 366 366 368 370 370 370 371 371 371 371 370 370 370 370 369 367 366 366 365 365 366 366 365 365 366 366 367 364 361 360 360 360 360 360 359 358
336 341 346 351 354 355 357 359 360 363 363 360 355 353 351 354 356 356 357 357 357 359 359 360 360 362 365 366 366 369 371 370 371 371 371 372 371 370 371 370 370 370 368 367 366 365 364 365 366 366 366 365 365 366 365 363 361 360 360 359 359 358 358
335 338 345 351 354 355 357 359 361 362 361 358 354 350 349 353 355 355 357 358 358 358 360 360 361 364 367 366 367 370 371 371 371 371 371 372 371 371 371 371 370 370 370 367 366 364 363 364 365 366 366 365 365 365 365 364 362 362 361 360 360 358 358
335 339 345 351 355 356 357 358 360 360 358 356 353 350 349 353 356 357 359 358 359 359 359 360 362 364 367 367 367 370 371 371 371 371 371 372 372 371 370 370 369 370 370 368 366 364 364 364 364 364 365 366 364 364 365 365 364 364 363 362 361 360 358
334 338 343 350 355 356 356 358 360 359 359 356 351 349 350 355 357 360 362 359 360 360 359 360 362 365 367 367 368 369 372 371 371 371 370 370 371 371 370 370 369 369 369 368 366 365 365 365 365 363 364 365 365 364 365 365 364 364 364 362 362 361 359
331 334 339 348 356 356 356 357 358 359 358 355 351 350 353 355 359 363 363 361 361 359 359 361 364 366 367 368 368 370 371 371 371 371 369 369 371 370 369 369 369 369 369 368 366 366 366 366 366 365 364 364 365 364 365 365 365 364 363 363 362 362 361
329 332 338 349 356 356 357 358 359 360 358 353 353 354 353 356 364 365 364 362 361 360 360 363 364 367 369 368 368 370 372 371 370 370 367 369 371 370 370 370 369 368 370 369 367 367 367 368 367 367 366 364 365 364 365 366 367 366 364 364 362 361 361
327 331 338 350 357 358 359 360 360 361 360 355 354 354 354 357 364 367 365 363 362 361 363 365 367 369 369 369 369 371 372 371 370 369 367 368 370 370 370 369 369 369 369 369 368 367 367 368 367 366 367 366 366 365 365 365 367 367 365 364 363 363 362
328 332 340 351 357 357 360 361 361 365 367 360 354 354 356 358 361 364 366 364 362 363 364 367 370 370 370 370 370 371 372 371 370 368 366 368 369 370 370 370 369 369 369 370 368 367 367 368 367 366 366 366 366 366 366 364 365 365 366 366 365 364 363
327 332 341 351 355 356 360 362 363 367 369 366 362 360 357 357 361 364 365 364 363 363 364 370 371 371 371 371 370 371 371 370 369 367 366 366 369 370 369 369 369 369 369 369 368 367 368 368 366 366 365 364 365 365 365 364 365 365 366 366 365 364 364
326 333 344 350 352 355 358 360 362 365 365 367 369 369 365 361 362 364 366 365 363 363 367 372 372 372 373 371 370 371 372 370 368 367 366 366 367 367 369 369 369 368 369 368 367 367 367 368 367 365 365 365 366 366 365 366 366 367 368 367 366 364 363
328 336 346 349 349 352 356 357 360 361 362 363 366 369 369 369 367 365 366 365 363 366 371 374 373 373 372 372 371 372 371 370 368 367 366 366 365 367 369 369 368 367 369 369 367 367 368 367 366 365 366 366 365 366 366 366 366 366 368 368 367 365 363
329 336 344 347 347 349 352 354 356 358 360 361 362 365 366 368 370 370 368 366 366 369 373 373 372 373 373 372 371 370 369 370 367 365 366 366 365 365 365 364 364 366 367 368 368 368 367 368 367 366 366 367 366 366 366 367 367 368 367 368 369 368 365
330 334 340 344 346 347 349 351 353 356 358 359 361 362 363 364 366 368 368 368 368 370 372 371 372 371 371 371 369 368 368 369 367 366 366 367 367 366 363 359 359 360 364 366 367 367 367 366 366 366 366 366 368 367 367 367 367 367 368 368 369 368 366
329 332 336 340 344 345 347 349 351 354 355 357 359 360 361 362 363 364 366 367 368 368 370 370 370 370 370 369 368 368 369 369 369 368 367 368 369 369 366 362 359 357 357 359 362 364 365 365 366 366 367 368 369 368 368 367 368 367 368 367 368 368 367
Wind_Speed
19 19 18 16 17 17 17 20 24 28 30 31 32 33 32 32 32 31 31 34 35 34 33 32 31 31 30 29 28 27 26 25 24 24 24 23 22 21 20 18 18 18 17 16 15 15 15 14 14 14 14 14 14 13 13 12 11 10 9 9 8 8 8
18 17 18 18 17 16 16 21 26 28 29 31 32 33 33 32 32 32 31 34 35 34 34 34 33 31 30 29 28 27 27 26 25 24 24 24 23 22 21 20 19 19 19 18 16 15 15 15 15 15 14 14 14 14 13 13 12 12 11 10 10 9 9
18 17 18 19 18 18 19 21 25 28 29 31 32 33 34 33 34 33 32 33 35 34 34 34 33 31 30 29 28 27 27 27 26 25 25 25 24 24 23 21 20 20 20 20 18 16 16 16 16 16 15 15 14 14 14 14 13 13 12 11 11 10 10
17 18 19 21 20 20 20 20 23 27 30 31 33 35 35 35 35 33 32 33 35 36 36 34 33 31 30 30 28 28 28 28 27 26 26 26 25 25 24 23 22 21 20 20 20 19 17 16 17 17 16 16 15 15 15 15 14 14 13 13 12 12 11
17 17 17 19 19 16 16 16 20 25 29 32 34 35 35 36 35 34 33 33 34 36 35 34 32 31 30 30 28 27 28 28 27 27 26 26 25 25 24 24 23 23 22 20 20 20 19 18 17 17 17 17 16 16 16 16 15 15 14 14 13 13 12
16 16 15 16 17 15 15 16 20 25 28 31 34 34 35 36 36 35 34 33 33 34 33 33 33 31 31 31 29 27 28 28 28 27 26 26 26 24 25 25 24 23 23 21 20 20 21 20 19 18 18 18 17 17 16 17 16 16 15 15 14 14 13
16 16 16 16 16 15 16 17 21 25 26 29 32 33 34 35 36 36 35 34 34 34 34 34 33 32 32 31 30 29 29 29 29 28 26 26 26 25 24 25 25 24 23 22 21 20 21 21 21 20 19 19 18 18 18 18 17 17 16 16 15 15 14
17 16 17 18 18 16 16 16 19 23 24 26 29 31 33 34 35 35 35 35 35 35 35 35 34 33 32 31 31 31 31 31 29 28 27 26 26 26 25 24 25 24 23 22 22 22 21 22 22 22 21 20 19 19 19 19 18 18 17 17 16 16 15
17 16 16 18 19 19 17 17 18 20 22 26 29 31 33 34 34 35 36 35 35 35 35 35 35 34 32 32 32 32 31 30 29 29 29 28 27 27 27 25 25 25 24 23 22 22 23 22 22 22 22 21 20 20 19 19 19 19 18 18 17 17 16
15 15 16 17 17 15 14 14 14 15 18 24 28 30 32 33 33 34 35 34 35 36 36 35 34 33 33 32 32 32 32 31 30 30 30 29 28 28 28 27 25 25 25 24 23 23 23 23 22 22 22 23 22 21 20 20 20 19 18 18 18 18 17
14 14 14 15 15 14 14 12 11 11 15 23 28 29 30 31 32 33 34 34 35 35 35 35 34 33 33 33 33 33 33 32 32 31 31 30 29 29 29 28 26 26 25 25 25 24 23 23 23 23 23 23 23 23 22 21 21 20 19 19 18 18 18
13 14 13 14 15 14 13 12 13 15 18 24 29 29 29 31 32 32 33 34 34 34 34 35 34 34 34 33 34 34 34 34 33 32 32 32 30 29 29 29 28 27 26 26 26 25 24 24 24 23 24 24 24 23 23 22 21 21 20 19 19 18 18
4 8 12 14 13 11 10 11 16 19 20 25 29 29 29 31 31 31 32 33 33 32 33 34 34 35 34 33 34 34 35 35 34 33 33 32 31 30 29 29 29 28 27 26 26 26 25 25 25 24 24 24 24 23 23 23 22 22 22 21 19 19 18
0 3 7 10 9 10 12 12 14 17 19 23 28 28 28 30 30 30 31 32 33 32 33 34 34 35 34 34 33 34 35 35 34 34 33 32 31 30 29 29 29 28 27 26 25 26 26 26 25 24 24 24 24 23 23 23 23 23 22 22 21 20 20
4 6 8 10 10 11 14 14 14 17 19 22 25 27 27 28 28 28 29 30 31 32 33 34 34 35 34 33 33 34 35 35 33 33 33 32 32 31 30 29 29 28 27 26 26 26 26 26 25 25 24 24 24 24 23 23 24 24 24 23 23 22 21
3 4 5 9 11 11 12 13 15 16 17 18 22 25 26 26 27 28 29 29 30 31 32 33 34 34 34 34 34 33 33 33 33 32 33 33 32 32 31 29 28 28 28 27 26 25 26 26 26 25 25 24 24 24 24 24 24 25 27 26 25 23 22
5 5 6 4 2 2 6 10 12 13 15 17 20 24 25 25 27 29 29 29 30 31 31 33 34 34 35 34 33 32 32 32 32 32 33 33 33 33 32 30 29 29 29 28 27 26 25 26 26 26 25 25 25 24 25 25 25 27 30 30 28 25 23
7 7 7 7 7 7 5 5 9 13 15 18 21 25 25 25 26 28 29 29 31 31 31 32 34 34 34 33 32 32 32 32 32 33 34 34 33 33 33 32 30 29 29 28 27 26 26 25 26 26 25 25 25 25 25 25 25 28 31 32 32 29 25
9 8 8 8 9 10 9 7 6 9 14 18 22 24 26 27 27 28 30 30 31 31 32 32 32 33 32 32 32 33 33 33 33 32 33 33 33 32 32 32 31 30 29 29 28 27 26 26 26 26 25 25 24 25 25 24 25 28 30 32 33 33 29
9 8 8 9 10 9 8 8 8 9 11 15 21 24 26 28 28 28 29 29 30 30 31 31 31 32 32 32 32 32 32 33 33 32 32 32 32 31 31 32 31 30 29 28 28 27 27 26 26 25 26 25 24 24 23 24 25 27 30 31 32 33 33
9 7 7 9 11 11 9 8 9 11 13 14 18 23 25 26 27 28 27 28 29 30 30 30 30 31 32 31 31 31 32 32 32 32 32 32 31 31 31 31 31 30 29 28 28 28 27 26 26 25 25 26 25 23 22 23 25 26 28 31 31 31 33
11 10 9 10 12 12 11 11 12 13 14 15 17 21 24 26 28 28 28 29 30 30 30 31 30 30 31 32 32 32 33 33 32 31 31 32 31 31 30 31 30 29 28 27 26 26 26 25 25 25 25 25 25 25 24 23 24 25 26 28 29 28 30
13 13 13 14 16 16 14 15 16 17 16 17 18 21 23 27 28 28 28 29 29 30 30 31 30 30 31 32 32 33 33 33 32 32 31 31 31 31 30 30 29 28 28 26 25 25 25 25 25 25 25 25 25 26 25 25 26 27 26 26 27 26 28
15 15 15 16 18 19 18 18 18 19 18 17 18 21 24 26 28 28 28 28 29 30 31 31 31 32 32 33 33 33 33 33 33 32 31 31 32 31 30 29 28 28 27 27 26 25 25 24 24 24 25 26 26 26 26 25 28 29 29 28 28 27 28
17 18 18 19 20 21 20 20 19 20 21 19 18 22 24 26 28 28 28 29 30 30 31 32 33 34 34 34 33 32 32 32 32 32 31 31 31 30 29 28 27 26 26 26 25 24 24 23 23 23 24 25 26 27 27 25 27 29 31 31 31 31 30
18 19 20 21 23 22 21 21 20 20 21 19 18 22 25 27 28 28 28 29 30 30 31 33 34 35 33 33 32 31 31 32 32 32 31 30 30 29 28 27 26 25 25 25 24 23 23 23 23 23 23 23 24 26 27 26 25 28 31 32 33 33 33
22 22 22 24 23 21 20 20 20 20 20 19 18 21 24 26 27 27 28 29 28 30 33 33 33 33 32 31 31 31 31 31 31 31 30 28 28 27 26 26 26 25 25 24 23 23 23 23 23 22 22 22 23 23 25 26 26 26 29 31 33 34 34
22 22 24 25 22 20 20 19 18 19 19 18 18 21 24 26 25 24 25 27 28 31 32 31 31 32 31 31 31 31 30 30 30 30 28 27 27 27 26 26 26 25 25 23 22 22 22 22 22 22 21 21 21 22 23 24 26 26 27 29 31 33 34
20 21 23 23 20 19 18 17 17 18 17 17 18 20 24 25 23 22 23 26 29 30 29 29 30 31 30 30 30 30 29 29 29 28 27 26 27 27 26 25 25 24 24 23 22 22 22 21 20 20 20 20 21 21 21 22 24 27 28 28 29 31 33
20 21 23 22 19 17 17 17 17 16 16 17 16 19 23 23 20 20 23 26 26 26 26 28 30 30 29 29 29 28 28 28 28 27 26 25 26 26 25 25 24 23 23 22 22 21 20 20 20 20 20 20 20 20 20 20 21 24 27 27 27 29 30
22 22 23 21 16 15 18 17 14 12 13 16 16 16 19 20 19 18 20 23 24 23 24 27 28 28 28 28 27 27 26 26 26 26 25 25 25 25 24 24 24 22 22 22 22 21 20 20 21 20 19 19 19 19 19 19 19 20 24 26 26 28 30
22 24 23 18 13 14 18 14 8 8 12 11 15 16 16 18 19 19 20 21 22 23 23 25 27 26 26 26 26 25 25 25 24 24 24 23 24 23 23 23 23 22 22 21 21 21 20 20 20 20 20 19 19 18 18 18 18 18 20 23 26 28 29
21 23 20 15 13 13 14 10 4 5 9 4 4 10 15 19 18 18 19 21 23 23 22 24 25 24 24 25 24 24 24 24 23 23 23 23 23 21 21 22 22 21 22 22 22 21 20 20 20 20 20 19 19 19 17 17 17 17 18 22 27 30 30
19 20 17 14 15 12 9 8 6 4 6 8 9 6 4 14 17 18 19 21 23 23 22 22 23 23 22 23 22 22 22 22 22 22 22 22 22 21 20 21 21 22 22 22 22 21 21 21 21 20 20 20 19 18 17 17 18 19 19 20 25 29 30
19 18 13 13 15 12 9 8 6 6 6 7 10 12 9 2 9 16 21 22 22 22 22 22 22 22 21 21 21 21 21 21 22 22 21 22 21 19 19 20 21 21 21 22 23 23 23 22 21 20 20 19 19 18 18 18 19 20 20 20 21 22 24
19 18 14 13 12 12 12 10 7 6 7 8 8 8 8 8 5 6 15 20 22 22 22 22 21 20 20 20 19 20 20 20 21 21 21 22 21 19 18 17 17 17 18 21 24 26 24 22 21 21 20 19 18 19 19 19 18 18 18 19 20 20 20
18 18 15 13 11 11 12 13 11 9 9 9 9 7 7 8 9 5 4 12 18 20 21 21 19 17 18 18 17 18 19 19 20 21 21 21 21 20 19 17 14 13 14 17 22 24 24 22 20 20 20 20 18 18 18 18 18 18 17 17 19 20 20
22 19 17 15 13 12 11 11 11 11 10 10 9 9 9 8 8 6 1 6 12 16 18 19 17 15 15 16 16 17 18 18 18 20 20 19 19 21 21 18 14 11 10 12 15 18 21 21 19 17 17 17 17 17 17 17 17 17 17 17 18 19 18
Wind_Direction
186 185 177 184 190 190 204 205 197 193 188 183 184 186 186 186 185 185 185 186 186 185 183 184 187 186 185 188 190 191 193 194 194 196 198 200 203 204 203 204 205 207 211 213 214 213 211 211 211 210 209 210 211 213 211 211 213 216 218 219 221 227 229
191 193 180 179 184 187 203 210 200 191 185 182 182 185 186 185 185 185 185 186 187 185 183 184 186 185 184 187 189 190 191 193 195 196 198 200 202 204 206 207 208 208 211 214 215 212 209 208 210 210 209 210 213 213 212 211 212 214 216 219 221 224 228
192 195 184 177 180 186 196 205 202 192 185 183 182 184 185 185 186 186 185 185 186 185 184 184 184 183 184 185 187 189 190 192 195 196 198 200 201 203 206 207 209 210 211 213 214 213 210 207 208 210 210 211 214 213 213 212 213 214 215 217 221 224 226
195 194 185 178 180 188 191 197 201 194 187 185 184 184 185 185 186 186 186 185 185 187 186 184 183 183 184 185 187 189 190 192 195 197 200 201 202 203 204 206 208 211 212 212 212 213 211 208 207 208 209 210 212 212 213 213 213 214 215 216 220 224 227
197 196 188 177 177 185 187 194 205 200 191 187 186 185 185 185 185 185 187 187 186 188 187 184 184 184 184 186 188 189 191 192 195 198 201 201 201 201 203 206 207 210 212 211 210 210 208 207 207 207 207 208 210 211 211 212 212 212 211 214 219 222 226
196 196 192 177 171 177 179 189 207 209 201 192 187 186 186 184 185 186 186 187 188 188 187 185 185 184 184 187 189 189 191 192 194 197 199 199 199 200 203 206 207 209 211 211 209 207 205 207 208 207 207 207 210 212 211 210 210 210 208 210 215 220 225
200 192 191 180 168 173 181 187 200 208 209 202 191 186 186 185 185 186 186 186 188 187 187 187 186 185 185 187 188 189 189 191 193 196 198 197 198 200 202 203 206 208 210 209 208 206 205 206 208 208 208 209 211 212 211 210 209 209 208 208 212 217 223
204 195 192 186 172 173 186 193 196 200 208 210 198 188 187 187 186 187 187 187 188 188 188 189 188 187 186 186 188 189 189 191 192 193 196 196 196 199 201 202 204 206 208 209 208 207 207 206 207 208 208 209 211 211 210 210 209 209 208 208 210 214 218
202 198 196 191 178 176 187 194 192 192 201 210 203 192 188 188 187 188 189 187 187 189 190 190 190 187 185 185 187 188 189 191 191 193 195 196 197 199 200 201 202 203 206 208 208 207 207 207 207 207 207 208 209 209 209 208 208 209 209 209 210 213 217
195 196 197 189 177 177 187 187 182 185 199 209 205 194 190 190 189 189 189 188 188 190 191 190 190 188 186 187 187 188 189 190 192 194 195 197 198 199 200 201 201 202 204 207 208 207 206 207 208 206 205 206 207 207 207 206 206 207 210 211 211 213 217
194 195 188 177 174 181 188 182 176 184 199 206 203 196 192 191 190 190 189 189 190 190 190 190 190 189 188 189 189 188 189 191 193 194 196 197 199 200 201 201 201 201 202 205 208 208 206 205 207 206 204 205 206 205 205 205 205 206 209 212 212 213 216
199 191 169 169 183 188 182 178 184 193 197 199 199 195 192 192 192 191 190 191 191 189 189 189 190 189 189 190 190 190 191 192 194 195 196 198 200 201 201 202 203 202 202 204 207 209 207 204 204 206 205 205 205 205 204 205 205 206 208 211 213 214 216
214 186 162 168 185 188 184 188 194 193 191 193 196 195 193 193 194 192 190 191 192 189 188 188 189 189 189 191 192 191 192 193 194 196 197 198 201 201 201 203 204 204 203 204 205 207 207 205 203 204 205 205 205 205 204 204 205 206 208 211 213 213 215
105 184 159 156 171 187 192 196 197 192 188 192 196 196 194 195 196 194 192 191 191 189 187 187 188 189 189 191 192 192 193 194 195 196 197 198 199 201 201 202 204 205 204 203 204 207 208 206 204 203 205 205 205 205 204 204 206 207 207 208 211 213 215
193 186 173 165 174 191 191 190 192 192 190 193 196 195 196 195 195 196 194 193 192 191 188 186 186 188 189 190 192 193 193 193 194 195 196 196 197 199 201 202 202 204 204 203 205 208 209 209 206 204 204 205 205 205 205 205 206 207 206 206 207 211 215
221 195 182 167 169 182 188 191 194 190 189 194 196 196 196 195 194 196 195 194 194 193 189 186 185 187 188 190 191 192 191 191 192 193 194 194 195 196 199 200 201 202 203 203 205 207 208 210 210 207 206 205 205 205 205 207 208 208 208 207 206 208 213
345 350 350 14 81 177 194 196 197 191 191 196 199 199 199 196 194 196 196 194 194 194 190 186 186 187 188 189 189 188 189 190 190 190 192 192 193 194 196 198 200 201 202 202 203 205 206 208 210 211 209 207 206 206 207 209 211 210 210 210 209 207 209
337 343 330 337 339 325 302 237 207 198 197 200 202 202 202 199 197 196 197 196 194 194 192 188 188 188 188 188 186 185 186 188 188 189 190 190 191 191 193 196 198 200 200 201 202 202 204 206 209 212 213 210 208 209 211 212 213 212 212 213 214 211 209
317 319 308 318 321 312 307 296 254 218 208 205 206 206 204 202 200 198 197 196 194 193 193 190 189 188 187 187 186 184 185 186 186 187 187 188 188 188 189 192 197 198 198 199 200 199 202 205 207 210 213 213 212 212 213 216 215 214 215 216 218 216 213
294 298 307 311 302 296 303 309 301 280 250 222 212 212 209 204 202 201 200 197 194 193 193 191 189 187 187 188 186 184 185 185 185 185 185 185 185 185 187 191 194 197 197 197 198 199 201 205 207 208 211 213 215 215 216 219 219 217 217 218 221 221 219
296 296 303 294 289 295 302 300 291 286 279 258 230 219 213 208 204 201 200 198 195 193 193 191 189 187 186 187 186 184 185 185 184 184 183 183 183 184 187 190 193 195 196 196 197 199 200 204 206 207 208 211 214 216 217 221 222 220 218 220 223 224 223
326 319 311 299 295 298 299 297 289 279 275 270 253 231 217 210 206 201 198 198 195 193 192 191 189 187 186 187 187 185 185 185 183 183 182 182 184 185 187 189 191 194 196 197 199 200 200 202 205 206 207 209 211 215 218 221 224 223 221 221 223 223 223
326 316 308 301 299 298 298 296 291 283 272 263 258 245 223 210 206 201 197 197 194 192 191 190 189 187 186 188 188 186 185 185 183 183 183 182 184 186 188 189 190 192 195 197 199 200 201 202 205 206 207 208 209 212 216 220 224 225 223 221 219 218 220
321 315 309 303 299 296 297 295 290 289 282 265 252 246 231 212 204 200 196 195 194 191 191 189 188 188 186 188 189 187 185 185 184 183 184 184 186 188 188 188 189 191 193 197 199 201 202 203 205 207 208 210 210 210 213 219 223 224 223 221 219 217 218
322 318 312 307 299 294 297 300 298 295 288 273 251 241 232 214 203 198 194 194 193 191 190 190 188 187 187 187 188 186 185 185 186 185 186 186 187 188 188 187 188 190 192 197 201 203 204 204 206 209 210 211 213 212 213 219 223 224 222 221 220 219 218
321 317 312 305 297 295 300 301 296 289 280 268 249 238 228 213 202 197 193 194 193 190 191 192 189 187 186 185 185 186 185 186 187 187 188 188 187 188 187 186 187 189 192 198 203 205 206 207 208 211 211 212 214 214 214 217 222 224 222 220 220 221 218
319 316 312 304 298 299 300 295 290 283 273 262 248 237 225 210 200 194 191 192 193 192 192 191 186 184 183 183 184 186 186 187 188 188 189 188 186 186 187 186 187 190 192 197 202 204 207 210 211 214 215 214 215 216 215 216 218 222 223 220 220 221 218
321 320 315 308 301 296 292 287 286 281 270 256 241 229 219 208 197 189 187 190 195 195 191 186 182 181 181 182 184 185 185 185 186 186 188 189 187 186 187 187 189 191 192 196 201 203 206 210 212 216 218 217 217 217 217 217 217 220 223 222 221 222 221
321 319 313 307 299 293 290 287 285 279 266 253 238 220 212 207 193 182 185 192 196 195 187 181 179 179 180 181 182 183 183 183 184 185 187 188 186 185 186 186 188 190 191 194 199 202 205 207 210 215 218 218 218 218 218 218 218 220 223 223 223 223 223
319 316 311 304 297 297 299 292 282 273 259 246 231 213 209 203 183 175 186 192 194 192 183 177 176 176 178 181 181 180 181 181 183 185 187 187 185 185 185 185 187 188 189 192 196 199 202 204 206 212 217 219 220 220 218 217 217 220 222 224 225 226 225
314 312 309 303 297 305 308 291 275 280 274 246 218 205 209 198 175 173 185 188 189 188 178 171 173 175 177 179 179 178 178 179 182 184 185 185 184 184 184 184 185 187 187 189 194 198 202 203 204 209 214 218 220 220 219 217 218 221 222 223 227 229 228
315 313 310 308 312 321 317 298 271 304 306 253 199 192 202 194 181 181 183 182 186 186 176 170 172 175 177 177 177 176 175 177 180 183 185 185 184 185 185 184 185 186 187 189 194 197 201 204 205 207 211 217 221 221 219 219 220 222 222 222 224 228 229
318 313 309 317 330 328 326 328 326 334 337 334 186 197 201 192 186 182 177 179 185 184 176 172 172 174 175 175 174 174 175 176 178 180 183 185 184 184 185 185 186 187 188 191 195 197 201 204 206 207 209 214 219 218 216 216 217 219 220 218 218 222 224
313 309 310 330 343 342 344 355 6 11 8 14 14 359 208 187 185 181 175 178 184 181 174 172 173 173 174 173 172 173 174 174 176 179 183 185 185 186 186 188 191 192 193 195 196 197 200 203 205 207 208 210 213 212 210 212 214 215 214 210 211 215 218
309 310 323 345 349 356 9 8 12 29 22 15 21 23 29 91 182 186 182 181 181 176 171 173 175 174 172 171 171 172 172 173 177 182 185 185 184 182 183 187 193 195 196 197 198 200 202 202 203 205 206 208 209 208 208 210 212 215 215 209 205 206 210
315 317 336 352 351 360 14 14 17 39 37 24 28 40 42 36 47 164 182 184 181 174 172 175 176 174 172 174 175 174 174 177 180 184 187 186 181 173 170 176 185 190 191 193 197 202 205 203 203 204 203 205 208 208 211 214 213 212 214 212 209 205 204
326 323 334 352 1 10 19 22 23 35 47 41 33 44 57 46 41 55 176 188 180 175 175 177 176 174 175 178 178 176 176 180 181 183 188 189 181 170 163 164 167 172 180 185 190 197 202 203 204 204 201 202 206 207 211 216 217 214 210 208 208 204 201
333 332 338 353 13 20 19 21 22 29 47 59 55 54 59 56 48 42 41 187 180 178 178 176 176 175 174 176 176 174 178 183 183 182 186 190 184 172 166 162 156 148 152 166 177 187 194 197 200 202 201 201 202 201 200 202 205 207 203 199 201 202 200